Wetterdaten: aktuell Donnerstag, 24.09.2020 14:30
Datum Zeit Temperatur Bodentemp. Luftfeuchte Luftdruck Regen Wind Richtung Richtung Sonnenschein
24.09.2020 14:30 19,1 C 12,1 C 5 % 1004 hPa 0,0 l/m 17,4 km/h (3 Bft) S67.5 190 0 min
24.09.2020 14:26 19,1 C 12,1 C 5 % 1004 hPa 0,0 l/m 20,0 km/h (4 Bft) SW67.5 225 0 min
24.09.2020 14:20 19,0 C 12,0 C 5 % 1004 hPa 0,0 l/m 14,6 km/h (3 Bft) SW67.5 220 0 min
24.09.2020 14:15 18,9 C 12,0 C 5 % 1005 hPa 0,0 l/m 25,1 km/h (4 Bft) S-SW45 205 0 min
24.09.2020 14:11 18,8 C 12,0 C 17 % 1005 hPa 0,0 l/m 18,1 km/h (3 Bft) S-SW45 200 0 min
24.09.2020 14:05 18,5 C 11,9 C 10 % 1005 hPa 0,0 l/m 19,6 km/h (3 Bft) SW67.5 225 0 min
24.09.2020 14:00 18,4 C 11,8 C 13 % 1005 hPa 0,0 l/m 17,4 km/h (3 Bft) S22.5 190 0 min
24.09.2020 13:55 18,5 C 11,8 C 5 % 1005 hPa 0,0 l/m 21,3 km/h (4 Bft) NW45 315 0 min
24.09.2020 13:51 18,5 C 11,8 C 5 % 1005 hPa 0,0 l/m 26,3 km/h (4 Bft) SW67.5 225 0 min
24.09.2020 13:45 18,5 C 11,7 C 18 % 1005 hPa 0,0 l/m 19,0 km/h (3 Bft) S-SW45 205 0 min
24.09.2020 13:40 18,4 C 11,7 C 26 % 1005 hPa 0,0 l/m 22,1 km/h (4 Bft) S-SW45 205 0 min
24.09.2020 13:36 18,2 C 11,7 C 21 % 1005 hPa 0,0 l/m 23,4 km/h (4 Bft) SW67.5 230 0 min
24.09.2020 13:30 18,0 C 11,6 C 25 % 1005 hPa 0,0 l/m 20,6 km/h (4 Bft) S-SW45 210 0 min
24.09.2020 13:25 17,8 C 11,5 C 24 % 1005 hPa 0,0 l/m 18,5 km/h (3 Bft) SW67.5 220 0 min
24.09.2020 13:21 17,9 C 11,5 C 22 % 1005 hPa 0,0 l/m 24,8 km/h (4 Bft) W-SW67.5 245 0 min
24.09.2020 13:16 18,2 C 11,5 C 27 % 1005 hPa 0,0 l/m 28,8 km/h (5 Bft) S-SW45 205 0 min
24.09.2020 13:10 18,2 C 11,4 C 27 % 1005 hPa 0,0 l/m 26,1 km/h (4 Bft) S45 190 0 min
24.09.2020 13:05 18,2 C 11,4 C 27 % 1005 hPa 0,0 l/m 26,1 km/h (4 Bft) S45 190 0 min
24.09.2020 13:01 18,0 C 11,4 C 28 % 1005 hPa 0,0 l/m 22,3 km/h (4 Bft) SW67.5 220 0 min
24.09.2020 12:55 18,0 C 11,3 C 30 % 1005 hPa 0,0 l/m 24,6 km/h (4 Bft) SW22.5 230 0 min
24.09.2020 12:50 18,0 C 11,3 C 31 % 1005 hPa 0,0 l/m 20,3 km/h (4 Bft) SW67.5 225 0 min
24.09.2020 12:46 18,1 C 11,1 C 33 % 1005 hPa 0,0 l/m 17,7 km/h (3 Bft) S-SW45 200 0 min
24.09.2020 12:40 17,8 C 11,1 C 27 % 1005 hPa 0,0 l/m 25,2 km/h (4 Bft) S-SW45 210 0 min
24.09.2020 12:35 17,9 C 11,0 C 31 % 1005 hPa 0,0 l/m 39,5 km/h (6 Bft) SW45 220 0 min
24.09.2020 12:30 17,9 C 11,1 C 30 % 1005 hPa 0,0 l/m 32,3 km/h (5 Bft) SW67.5 235 0 min
24.09.2020 12:26 17,7 C 11,0 C 33 % 1005 hPa 0,0 l/m 25,1 km/h (4 Bft) W-SW45 240 0 min
24.09.2020 12:20 17,3 C 11,0 C 32 % 1005 hPa 0,0 l/m 29,0 km/h (5 Bft) SW67.5 235 0 min
24.09.2020 12:15 17,3 C 10,9 C 32 % 1005 hPa 0,0 l/m 28,5 km/h (5 Bft) SW45 215 0 min
24.09.2020 12:11 17,4 C 10,9 C 36 % 1005 hPa 0,0 l/m 28,5 km/h (5 Bft) SW45 215 0 min
24.09.2020 12:06 17,0 C 10,7 C 37 % 1005 hPa 0,0 l/m 29,3 km/h (5 Bft) SW45 220 0 min
24.09.2020 12:00 16,8 C 10,7 C 38 % 1005 hPa 0,0 l/m 30,6 km/h (5 Bft) W-SW45 240 0 min
24.09.2020 11:55 16,9 C 10,6 C 39 % 1005 hPa 0,0 l/m 32,4 km/h (5 Bft) SW67.5 230 0 min
24.09.2020 11:51 16,7 C 10,5 C 38 % 1005 hPa 0,0 l/m 26,5 km/h (4 Bft) SW67.5 225 0 min
24.09.2020 11:45 16,9 C 10,6 C 38 % 1005 hPa 0,0 l/m 27,3 km/h (5 Bft) SW45 225 0 min
24.09.2020 11:40 17,0 C 10,7 C 42 % 1005 hPa 0,0 l/m 27,8 km/h (5 Bft) SW45 220 0 min
24.09.2020 11:36 16,7 C 10,7 C 42 % 1005 hPa 0,0 l/m 27,9 km/h (5 Bft) W-SW45 245 0 min
24.09.2020 11:31 16,3 C 10,5 C 44 % 1005 hPa 0,0 l/m 19,5 km/h (3 Bft) W-SW45 250 0 min
24.09.2020 11:25 16,0 C 10,2 C 44 % 1005 hPa 0,0 l/m 25,1 km/h (4 Bft) SW45 230 0 min
24.09.2020 11:20 16,0 C 10,2 C 42 % 1005 hPa 0,0 l/m 34,1 km/h (5 Bft) W-SW45 250 0 min
24.09.2020 11:16 16,1 C 10,2 C 42 % 1005 hPa 0,0 l/m 33,7 km/h (5 Bft) W-SW67.5 240 0 min
24.09.2020 11:10 16,1 C 10,1 C 42 % 1005 hPa 0,0 l/m 33,3 km/h (5 Bft) W-SW45 250 0 min
24.09.2020 11:05 16,1 C 10,1 C 42 % 1005 hPa 0,0 l/m 35,1 km/h (5 Bft) W45 260 0 min
24.09.2020 11:01 16,2 C 10,2 C 45 % 1005 hPa 0,0 l/m 36,3 km/h (5 Bft) W-SW67.5 240 0 min
24.09.2020 10:55 15,9 C 10,2 C 45 % 1005 hPa 0,0 l/m 27,4 km/h (5 Bft) W-SW45 250 0 min
24.09.2020 10:50 15,8 C 10,1 C 46 % 1005 hPa 0,0 l/m 34,8 km/h (5 Bft) W-SW67.5 240 0 min
24.09.2020 10:45 15,4 C 9,9 C 48 % 1005 hPa 0,0 l/m 31,7 km/h (5 Bft) SW45 235 0 min
24.09.2020 10:41 15,4 C 9,8 C 48 % 1005 hPa 0,0 l/m 31,0 km/h (5 Bft) SW67.5 230 0 min
24.09.2020 10:35 15,3 C 9,9 C 49 % 1005 hPa 0,0 l/m 32,5 km/h (5 Bft) S-SW45 210 0 min
24.09.2020 10:30 15,3 C 9,8 C 49 % 1005 hPa 0,0 l/m 31,2 km/h (5 Bft) W-SW45 240 0 min
_ Min-Zeit 08:06 08:21 15:00 02:05 - 16:01 - - -
Minimum _ 12,8 C 8,2 C 5 % 1000 hPa - 0,0 km/h (0 Bft) - - -
_ Max-Zeit 15:00 16:51 06:36 09:16 06:15 06:10 - - 15:06
Maximum _ 24,9 C 14,0 C 87 % 1005 hPa 0,4 l/m 50,2 km/h
S-SW (7 Bft)
- - 6 min
Durchschnitt _ 18,3 C 11,6 C 43 % 1003 hPa #0,7 l/m 14,6 km/h (3 Bft) S-SW - #0 min.